This is the latest recevied weather packets stored in our database for station/object MKSRDG. If no packets are shown the sender has not sent any weather packets the latest 10 day(s).
| Time | Temp. | Humidity | Pressure | Rain* | Wind** | Luminosity | Snow |
|---|---|---|---|---|---|---|---|
| 1777599599 | 21.11° C | 48% | 1013.6 hPa | 0 mm | - | 141 W/m² | - |
| 1777598699 | 21.67° C | 48% | 1013.8 hPa | 0 mm | - | 274 W/m² | - |
| 1777597799 | 21.67° C | 48% | 1013.8 hPa | 0 mm | - | 346 W/m² | - |
| 1777596899 | 22.22° C | 47% | 1013.9 hPa | 0 mm | - | 403 W/m² | - |
| 1777595999 | 21.67° C | 49% | 1014 hPa | 0 mm | - | 450 W/m² | - |
| 1777595099 | 22.22° C | 51% | 1014.1 hPa | 0 mm | - | 494 W/m² | - |
| 1777594199 | 22.22° C | 51% | 1014.1 hPa | 0 mm | - | 524 W/m² | - |
| 1777593299 | 22.22° C | 50% | 1014.2 hPa | 0 mm | - | 582 W/m² | - |
| 1777592399 | 21.67° C | 53% | 1014.5 hPa | 0 mm | - | 624 W/m² | - |
| 1777591499 | 21.67° C | 56% | 1014.7 hPa | 0 mm | - | 664 W/m² | - |
| 1777590599 | 21.67° C | 50% | 1015 hPa | 0 mm | - | 710 W/m² | - |
| 1777589699 | 21.67° C | 56% | 1015.3 hPa | 0 mm | - | 742 W/m² | - |
| 1777588799 | 21.11° C | 52% | 1015.5 hPa | 0 mm | - | 777 W/m² | - |
| 1777587899 | 21.11° C | 55% | 1015.7 hPa | 0 mm | - | 809 W/m² | - |
| 1777586999 | 21.11° C | 51% | 1015.8 hPa | 0 mm | - | 844 W/m² | - |
| 1777586099 | 21.11° C | 49% | 1015.9 hPa | 0 mm | - | 872 W/m² | - |
| 1777585199 | 21.11° C | 53% | 1016.1 hPa | 0 mm | - | 912 W/m² | - |
| 1777584299 | 21.11° C | 54% | 1016.2 hPa | 0 mm | - | 930 W/m² | - |
| 1777583399 | 20° C | 54% | 1016.3 hPa | 0 mm | - | 937 W/m² | - |
| 1777582499 | 20° C | 59% | 1016.4 hPa | 0 mm | - | 944 W/m² | - |
| 1777581599 | 19.44° C | 59% | 1016.6 hPa | 0 mm | - | 942 W/m² | - |
| 1777580699 | 18.89° C | 55% | 1016.7 hPa | 0 mm | - | 951 W/m² | - |
| 1777579799 | 18.33° C | 57% | 1016.9 hPa | 0 mm | - | 974 W/m² | - |
| 1777578899 | 17.78° C | 64% | 1017.2 hPa | 0 mm | - | 962 W/m² | - |
| 1777577999 | 17.78° C | 66% | 1017.4 hPa | 0 mm | - | 795 W/m² | - |
* Rain latest hour (hover to see other rain measurements)
** Current wind speed in m/s (hover to see current wind gust speed)